sat.trackr.live / text

‹ back to catalog

STARLINK-31063

NORAD 58547 · 2023-192S

PAYLOAD ACTIVE UNKNOWN

§ Identity

Operator
Country
US
Launch date
2023-12-08
Launch site
AFWTR
Launch vehicle
Mass (kg)
RCS (m²)

Purposes: comms

External: N2YO · Heavens-Above · Gunter

§ Orbital elements

Epoch: 2026-05-25T04:39:02.593728Z

Period
94.10 min
Inclination
53.1602°
Eccentricity
0.0001061
Mean motion
15.30219687 rev/d
Perigee alt
474.4 km
Apogee alt
475.9 km
Semi-major
6,853.3 km
B*
-1.3824e-4
RAAN
57.0441°
Arg perigee
82.5688°
Mean anomaly
277.5434°
Rev number
13,784

§ Raw data

STARLINK-310631 58547U 23192S   26145.19378002 -.00004453  00000+0 -13824-3 0  99922 58547  53.1602  57.0441 0001061  82.5688 277.5434 15.30219687137841

JSON: /api/v1/satellites/58547 · /tle

For live sub-satellite position, see the globe view (requires WebGL).

§ Visibility from observer

Set your observer location to see the next 7 days of passes ≥ 10°. The values pass through the URL so the page stays shareable.

No JS? Fill the form by hand. The geolocation button needs JavaScript.